Location: The Saddle
(36.8333°N, 80.3417°W)
Time: 05:39:30
(UTC-04:00)

Courier 1B - Pass Details

Date: 21 September 2024
Orbit: 962 x 1208 km, 28.3° (Epoch: 05 October)

Event Time Altitude Azimuth Distance (km) Brightness Sun altitude
Rises 12:50:15 0° 235° (SW) 3,671 10.7 53.1°
Reaches altitude 10° 12:53:07 10° 226° (SW) 2,749 10.3 53.2°
Maximum altitude 12:58:56 32° 165° (SSE) 1,677 10.3 53.3°
Drops below altitude 10° 13:05:03 10° 105° (ESE) 2,898 10.3 53.4°
Sets 13:08:09 0° 96° (E) 3,898 10.7 53.5°
